Время (UTC), дата Ветер
(°,м/с) 
Видим.   Явления Облачность Т
(°С)
Тd
(°С)
f(%) Тe
(°С)
Pmin
(гПа)
dP
(гПа)
Po
(мм)
O2
(г/м3)
Тmin Tmax R s Состояние
почвы
00 01.11.12 260 (З) 3{11}  10 км    9/9 240 м 
[St]
+4.9 -0.4 68 +4  1017.2  1.6  752  298           
03 01.11.12 260 (З) 10 км    9/9 240 м 
[St]
+3.6 -0.7 73 +3  1019  1.7  753  300  +3.6    0.0     
06 01.11.12 260 (З) 10 км  в посл. час ливневой снег  10/10 300 м 
[Frnb]
+2.5 +0.2 85 +2  1021.5  2.4  755  302  +2.4         
09 01.11.12 280 (З) 4000 м  снежные зёрна  10/10 400 м 
[St]
+1.9 -1.7 77 1023.3  1.7  757  303           
12 01.11.12 280 (З) 10 км  {снег}  10/10 600 м 
[Sc]
+1.6 -3.4 69 1024.5  1.2  757  304           
15 01.11.12 320 (СЗ) 10 км    10/10 800 м 
[Sc]
+1.1 -4 69 1025.4  0.8  758  305    +3.7  0.0     
18 01.11.12 310 (СЗ) 10 км    10/10 800 м 
[Sc]
+1 -3.7 71 1026.4  1.1  759  305           
21 01.11.12 тихо ()   10 км    10/10 600 м 
[St]
+1.2 -4 68 +1  1027.5  0.8  759  305           
00 02.11.12 тихо ()   10 км    10/10 360 м 
[St]
+0.8 -4.3 69 +1  1027.3  0.1  759  306           
03 02.11.12 300 (СЗ) 10 км    10/10 300 м 
[St]
+0.7 -3 76 +1  1027.7  0.4  760  306  +0.7         
06 02.11.12 360 (С) 10 км    10/10 700 м 
[Sc]
+0.6 -2.3 81 +1  1028.8  0.6  760  306  +0.6         
09 02.11.12 320 (СЗ) 10 км    9/8 500 м средняя 
[Sc|Ac cast]
+1.4 -2.5 75 +1  1028.9  0.6  761  305           
12 02.11.12 320 (СЗ) 10 км    9/9 800 м 
[Sc]
+2 -4 65 +3  1029.1  0.2  761  305           
15 02.11.12 280 (З) 10 км    ясно 
+0.7 -3.2 75 +1  1029.3  761  306    +2       
18 02.11.12 тихо ()   10 км    ясно 
-1.1 -3.5 84 -1  1028.9  0.1  761  308           
21 02.11.12 290 (З) 10 км    ясно 
-1.2 -3.7 83 -1  1028.6  -0.4  760  308           
00 03.11.12 250 (З) 10 км    3/0 <0100 м верхняя 
[Ci fib]
-1.7 -3.9 85 -1  1027.8  -0.8  760  309           
03 03.11.12 170 (Ю) 10 км    ясно 
-3 -4.7 88 -3  1027.3  -0.6  759  310  -3         
06 03.11.12 250 (З) 10 км    4/0 верхняя 
[Cs]
-0.7 -2.9 85 -2  1026.6  -0.6  759  307           
09 03.11.12 250 (З) 10 км    9/0 верхняя 
[Cs]
+2.7 -1.9 72 +2  1025.8  -0.6  758  303           
12 03.11.12 190 (Ю) 10 км    10/0 верхняя 
[Cs]
+2.5 -1.6 74 +3  1024.3  -1.5  757  303           
15 03.11.12 190 (Ю) 10 км    1/0 верхняя 
[Cs]
+0.3 -1.9 85 +1  1023.6  -0.8  757  305    +3.5       
18 03.11.12 150 (ЮВ) 10 км    10/0 верхняя 
[Cs]
-0.5 -2.2 88 1022.4  -1.2  756  305           
21 03.11.12 140 (ЮВ) 10 км    10/0 средняя 
[As op]
-0.3 -1.9 89 -1  1020.6  -1.7  754  305           
00 04.11.12 тихо ()   10 км    8/0 средняя, верхняя 
[Ac cast|Cs]
-0.8 -2.5 88 -1  1019  -1.6  753  305           
03 04.11.12 190 (Ю) 10 км    9/0 средняя 
[Ac cast]
-0.5 -2.8 84 1017.9  -1.1  752  304  -0.9         
06 04.11.12 220 (ЮЗ) 10 км  снежные зёрна  10/10 800 м 
[Sc]
+0.1 -2.2 85 +1  1017.4  -0.4  752  303           
09 04.11.12 240 (ЮЗ) 10 км  {снег, дождь}  10/10 600 м 
[Sc]
+0.7 -0.8 90 -2  1017.8  0.4  752  302           
12 04.11.12 240 (ЮЗ) 10 км  {снег, дождь}  10/0 
[]
+1.5 +0.1 90 +1  1017.8  752  302           
15 04.11.12 240 (ЮЗ) 10 км    10/0 верхняя 
[Cs]
+2.2 +0.9 91 +3  1018.5  0.7  753  301    +2.2  0.3     
18 04.11.12 190 (Ю) 4000 м  в посл. час морось  10/10 100 м 
[St]
+2.4 +1.5 94 +3  1017.4  -1.1  752  300           
21 04.11.12 200 (Ю) 4000 м    10/10 120 м 
[St]
+2.9 +2 94 +4  1016.3  -1  751  299           
00 05.11.12 230 (ЮЗ) 4000 м    10/10 180 м 
[St]
+4 +2.8 92 +5  1015.1  -1.1  751  298           
03 05.11.12 250 (З) 2{10}  10 км    10/10 300 м 
[St]
+4.7 +2.9 88 +4  1013.4  -1.7  749  296  +2.1    0.8     
06 05.11.12 240 (ЮЗ) 3{10}  10 км    10/10 540 м 
[Sc]
+6.1 +3.3 82 +5  1013.1  -0.3  749  295           
09 05.11.12 250 (З) 3{11}  10 км    10/10 420 м 
[St]
+6.5 +4.3 86 +6  1013.8  0.7  750  294           
12 05.11.12 270 (З) 10 км    10/10 540 м 
[St]
+7.5 +5.1 85 +7  1014.8  750  293           
15 05.11.12 280 (З) 10 км    8/8 540 м средняя 
[St|As op]
+6.7 +4.7 87 +7  1015.9  1.1  751  295    +7.6       
18 05.11.12 290 (З) 10 км    8/0 средняя 
[Ac lent]
+6 +2.7 79 +7  1017.2  1.2  752  296           
21 05.11.12 160 (Ю) 10 км    10/0 средняя, верхняя 
[Ac cast|Cs]
+3.9 +2.2 89 +5  1017.2  0.1  752  298           
00 06.11.12 130 (ЮВ) 4000 м    10/10 270 м 
[St]
+4.6 +3.5 93 +5  1016.8  -0.3  752  297           
03 06.11.12 150 (ЮВ) 0500 м  туман{морось}  н/о 
+5.4 +4.8 96 +5  1014.7  -2  750  296  +3.4    0.0     
06 06.11.12 150 (ЮВ) 4000 м  дымка{туман}  10/10 180 м 
[St]
+6 +5.4 96 +5  1012.9  -1.7  749  294           
09 06.11.12 150 (ЮВ) 10 км  слаб. морось  10/10 300 м 
[St]
+7.3 +6.4 94 +6  1010.9  -1.9  748  292           
12 06.11.12 170 (Ю) 10 км  слаб. морось  10/10 210 м 
[St]
+7.4 +6.5 94 +7  1008.8  -2  746  292           
15 06.11.12 160 (Ю) 10 км    10/0 средняя 
[Ac As]
+7.6 +6.3 91 +7  1006.9  -1.8  745  291    +7.7  0.5     
18 06.11.12 160 (Ю) 6-11{12}  10 км    10/0 средняя 
[Ac As]
+9 +7.4 90 +7  1004  -2.8  743  288           
21 06.11.12 160 (Ю) 3{11}  10 км    10/0 средняя 
[Ac As]
+9.3 +5.7 78 +9  1001.8  -2.1  741  288           
00 07.11.12 190 (Ю) 4-10{12}  4000 м  дождь  10/10 330 м 
[Ns]
+9.8 +8.6 92 +9  999.6  -2.1  739  286           
03 07.11.12 190 (Ю) 4-10{11}  4000 м  дождь  10/10 270 м 
[Frnb|Ns]
+10 +9.1 94 +9  998.3  -1.3  738  285  +7.6    10     
06 07.11.12 290 (З) 3{11}  10 км  в посл. час дождь  10/10 240 м 
[St]
+7.3 +6.2 93 +7  1000.8  2.3  740  289  +7.3         
09 07.11.12 250 (З) 10 км    9/8 300 м средняя 
[St|As op]
+7.4 +2.7 72 +7  1002.8  742  290           
12 07.11.12 250 (З) 10 км    9/9 360 м 
[St]
+7.8 +1.8 66 +7  1004.5  1.6  743  291           
15 07.11.12 240 (ЮЗ) 10 км    4/4 300 м 
[Sc]
+5.7 +2.3 79 +5  1006.7  744  293    +10     
18 07.11.12 220 (ЮЗ) 10 км    3/0 средняя 
[Ac cast]
+4.4 +0.6 76 +5  1007.8  1.1  745  295           
21 07.11.12 130 (ЮВ) 10 км    ясно 
+1.9 -0.1 87 +3  1007.4  -0.5  745  298           
00 08.11.12 160 (Ю) 10 км    3/0 средняя 
[Ac cast]
+0.6 -0.6 92 +1  1007.1  -0.4  745  299           
06 08.11.12 180 (Ю) >10 км    9/9 480 м 
[Sc]
+2.8 +1.2 89 +4  1004.7  -1  743  296           
09 08.11.12 240 (ЮЗ) >10 км    10/10 300 м 
[Frnb]
+4 +1.2 82 +5  1003.9  -1.1  742  294           
15 08.11.12 210 (ЮЗ) 10 км  слаб. дождь  10/10 300 м 
[Sc]
+2.5 +0.6 87 +3  1001.8  -0.4  741  296    +4.9  0.3     
18 08.11.12 250 (З) 10 км  {дождь}  8/8 270 м 
[St]
+2.9 +0.7 85 +2  1001.6  -0.1  741  295           
21 08.11.12 260 (З) 10 км  {ливн. осадки, дождь}  8/8 270 м 
[St]
+1.5 -0.6 86 1003.1  1.4  742  297           
00 09.11.12 270 (З) 10 км  {ливн. осадки, дождь}  9/9 270 м 
[St]
+1.4 -1.2 83 +1  1004.4  1.2  743  298           
03 09.11.12 270 (З) 10 км    9/9 480 м 
[Sc]
+1.3 -1.2 83 1006.1  1.7  744  298  +1.2    0.4     
06 09.11.12 260 (З) 10 км    10/10 480 м 
[St]
+1.5 -1.3 81 1008.5  2.4  746  299           
09 09.11.12 270 (З) >10 км    9/9 480 м 
[Sc]
+2.4 -3.7 64 +1  1010.2  1.7  747  299           
12 09.11.12 250 (З) >10 км    8/8 840 м верхняя 
[Sc|Ci fib]
+1.8 -2.8 72 1010.9  0.7  747  299           
15 09.11.12 150 (ЮВ) 10 км    8/6 800 м верхняя 
[Sc|Ci fib]
-0.3 -2.6 84 -1  1010.8  -0.3  747  302    +2.5       
18 09.11.12 160 (Ю) 4000 м  ливневой снег  10/10 270 м 
[St]
+0.6 -0.5 92 -1  1008.7  -2  746  300           
21 09.11.12 190 (Ю) 4000 м  {ливн. осадки}  10/10 420 м 
[Sc]
+3.2 +2.5 95 +3  1006.7  -1.8  744  296           
00 10.11.12 200 (Ю) 4000 м  слаб. дождь{ливн. осадки}  10/10 360 м 
[St]
+5.4 +4.5 94 +5  1004.7  -1.9  743  293           
03 10.11.12 260 (З) 10 км  {дождь}  10/10 600 м 
[Sc]
+5.4 +4.1 91 +5  1005.4  0.7  743  293  -0.4       
06 10.11.12 290 (З) 10 км  ливневой снег{дождь}  10/10 400 м 
[St]
+1.6 -0.2 88 -1  1009.1  3.4  746  299  -0.3         
09 10.11.12 300 (СЗ) 3{10}  10 км  {снег}  9/9 750 м 
[Sc]
+1.9 -0.4 85 1011.6  2.4  748  299           
12 10.11.12 300 (СЗ) 4{11}  4000 м  слаб. снег  10/10 330 м 
[Frnb|Ns]
-0.1 -1.3 92 -3  1014.5  2.7  750  302           
15 10.11.12 330 (СЗ) 4{10}  4000 м  слаб. снег  10/10 330 м 
[Frnb|Ns]
-0.6 -3.2 83 -3  1017.7  3.2  752  304    +5.4     
18 10.11.12 330 (СЗ) 3{11}  10 км  {снег}  10/10 720 м 
[Sc]
-1 -4.9 75 -3  1020.8  755  306           
21 10.11.12 320 (СЗ) 3{10}  10 км    10/10 700 м 
[Sc]
-1.1 -5.5 72 -3  1023.3  2.5  756  307           
00 11.11.12 330 (СЗ) 10 км    9/9 700 м средняя 
[Sc|As op]
-1.4 -5.8 72 -3  1025.4  758  308           
03 11.11.12 320 (СЗ) 10 км    9/9 750 м 
[Sc]
-1.7 -6.3 71 -4  1027.3  1.9  759  309  -1.7    0.0  сухой снег
50-90% 
06 11.11.12 330 (СЗ) 10 км    10/10 540 м 
[Sc]
-1.4 -4.9 77 -3  1028.6  1.3  760  308           
09 11.11.12 360 (С) 10 км    10/10 600 м 
[Sc]
-1.2 -5 75 -3  1029.7  1.1  761  309           
12 11.11.12 350 (С) 10 км    10/10 570 м 
[Sc]
-1.5 -5.7 73 -2  1030.5  0.8  762  309           
15 11.11.12 330 (СЗ) 10 км    9/9 570 м 
[Sc]
-2 -6.3 72 -4  1031.7  1.1  763  310    -0.8       
18 11.11.12 010 (С) 2{11}  10 км    10/10 600 м 
[Sc]
-2.3 -5.9 76 -3  1031.8  763  311           
21 11.11.12 350 (С) 10 км    10/10 630 м 
[Sc]
-2 -5.7 76 -3  1032.1  0.3  763  310           
00 12.11.12 310 (СЗ) 10 км    10/10 630 м 
[Sc]
-2.1 -6.1 74 -2  1031.7  -0.5  763  310           
03 12.11.12 270 (З) 10 км    10/10 480 м 
[Sc]
-3 -5.7 82 -4  1031.5  -0.2  762  311  -3      сухой снег
50-90% 
06 12.11.12 270 (З) >10 км    9/8 500 м средняя 
[Sc|Ac cast]
-3.4 -6.1 82 -5  1031.4  0.1  762  312  -3.6         
09 12.11.12 190 (Ю) >10 км    8/0 средняя, верхняя 
[Ac lent|Cc]
-0.6 -4.9 73 1029.5  -1.7  761  308           
12 12.11.12 190 (Ю) >10 км    9/0 средняя 
[Ac As]
-0.1 -4.9 70 +1  1027.4  -2.1  759  307           
15 12.11.12 210 (ЮЗ) 10 км    10/0 средняя 
[Ac und]
+0.6 -4.9 67 1025.3  -2  758  305    +0.6       
18 12.11.12 200 (Ю) 10 км  слаб. снег  9/9 270 м 
[St]
+1.3 -5.9 59 +1  1022.7  -2.5  756  304           
21 12.11.12 240 (ЮЗ) 10 км  слаб. снег  10/10 300 м 
[St]
+0.8 -3.3 74 -2  1020.8  -2.5  755  304           
00 13.11.12 250 (З) 4{10}  10 км  слаб. снег  10/10 300 м 
[St]
-0.4 -1.7 91 -3  1019  -1.9  753  304           
03 13.11.12 250 (З) 4000 м  слаб. снег  10/10 270 м 
[Frnb|Ns]
-0.1 -0.8 95 -2  1017.2  -1.7  752  303  -0.5    сухой снег
50-90% 
06 13.11.12 260 (З) 10 км  {снег}  10/10 210 м 
[St]
+0.4 -0.3 95 -1  1016.6  -0.6  752  302           
09 13.11.12 240 (ЮЗ) 10 км  {снег}  10/10 210 м 
[St]
+1.2 +0.3 94 +1  1016.4  -0.2  751  301           
12 13.11.12 280 (З) 10 км  {снег}  10/10 270 м 
[St]
+1.7 +0.5 92 1016.4  751  301           
15 13.11.12 210 (ЮЗ) 10 км    10/10 300 м 
[St]
+1.6 +0.5 92 +2  1016.1  -0.2  751  301    +1.7  мокрый или
старый снег
10-40% 
18 13.11.12 250 (З) 10 км    10/10 300 м 
[St]
+1.8 +0.4 91 1015  -1.1  750  300           
21 13.11.12 250 (З) 10 км    10/10 400 м 
[St]
+2.1 +0.3 88 +1  1013.8  -1.2  750  300           
00 14.11.12 250 (З) 10 км  слаб. морось  10/10 330 м 
[St]
+1.9 +0.2 89 1012.2  -1.6  748  299           
03 14.11.12 250 (З) 10 км  {снег, морось}  10/10 360 м 
[St]
+1.5 +0.3 92 1010.5  -1.7  747  299  +1.2       
06 14.11.12 320 (СЗ) 2{10}  4000 м  слаб. снег{морось}  10/10 240 м 
[Frnb|Ns]
-0.9 -1.9 93 -2  1011.1  0.5  747  302  -0.9         
09 14.11.12 310 (СЗ) 4{10}  10 км  в посл. час снег  8/8 700 м 
[Sc]
-0.4 -4.9 72 -3  1011.2  747  302           
12 14.11.12 310 (СЗ) 4{10}  10 км  в посл. час ливневой снег  9/3 600 м кучево-дожд., средняя 
[Cb cap|Ac cast]
-0.8 -4.4 77 -3  1011.5  0.3  748  303           
15 14.11.12 300 (СЗ) 10 км    10/5 300 м средняя 
[Sc|Ac cast]
-1.2 -3.8 82 -2  1011.8  0.3  748  303    +1.6  0.4     
18 14.11.12 290 (З) 4000 м  снег  10/10 300 м 
[Frnb|Ns]
-1.7 -3.3 89 -3  1011.2  -0.5  747  303           
21 14.11.12 300 (СЗ) 4000 м  слаб. снег  10/10 210 м 
[Frnb|Ns]
-1.5 -2.9 90 -3  1011.4  0.1  748  303           
00 15.11.12 320 (СЗ) 10 км  {снег}  10/10 420 м 
[St|Ns]
-1.3 -3.1 88 -1  1011.8  0.5  748  303           
03 15.11.12 320 (СЗ) 10 км    10/10 400 м 
[St|Ns]
-1.2 -3.1 87 -2  1013.1  1.2  749  303  -1.9    равномерный
сухой снег
100% 
06 15.11.12 300 (СЗ) 10 км    10/10 300 м 
[St]
-0.8 -3.5 82 1013.6  0.5  749  303           
09 15.11.12 260 (З) 10 км    10/10 800 м 
[Sc]
-0.2 -3.5 78 -1  1012.6  -1  749  302           
12 15.11.12 250 (З) 10 км    10/10 750 м 
[Sc]
-0.4 -4.3 75 -1  1010.8  -1.7  747  302           
15 15.11.12 200 (Ю) 2000 м  снег  10/10 600 м 
[Ns]
-1 -2.5 89 1008.3  -2.5  745  302    +0.2  0.5     
18 15.11.12 200 (Ю) 2000 м  снег  10/10 600 м 
[Ns]
-0.1 -0.9 94 +1  1005.2  -3.1  743  300    +0.2       
21 15.11.12 тихо ()   4000 м  слаб. снег  10/10 660 м 
[Ns]
+0.4 -0.2 96 1002.7  -2.4  741  298           
00 16.11.12 250 (З) 4000 м  слаб. снег  10/10 540 м 
[Ns]
+1.6 +1 96 1000.4  -2.2  740  296           
03 16.11.12 240 (ЮЗ) 4000 м  слаб. дождь{снег}  10/10 270 м 
[Frnb|Ns]
+2 +1.4 96 +1  997.8  -2.5  738  295  -1    равномерный
мокрый или
старый снег
100% 
06 16.11.12 250 (З) 10 км  слаб. дождь{снег}  10/10 300 м 
[Frnb|Ns]
+2.4 +1.8 96 +1  995.9  -1.8  736  294           
09 16.11.12 270 (З) 10 км  слаб. дождь  10/10 240 м 
[Frnb|Ns]
+3 +2.3 95 +2  994.9  -0.9  736  293           
12 16.11.12 330 (СЗ) 10 км  {дождь}  10/10 240 м 
[Frnb|Ns]
+2.9 +2 94 +2  996.1  1.1  736  293           
15 16.11.12 340 (С) 3{10}  10 км  слаб. снег{дождь}  10/10 270 м 
[Frnb|Ns]
+0.5 -0.6 92 -1  1001.2  4.9  740  298    +3.2     
18 16.11.12 330 (СЗ) 3{10}  10 км  {снег, дождь}  10/6 720 м средняя 
[Sc|As op]
+0.7 -1 88 -1  1004.6  3.3  743  299    +3.2       
21 16.11.12 330 (СЗ) 3{10}  4000 м  в посл. час снег  10/10 210 м 
[Frnb|Ns]
+0.1 -2.1 85 -2  1007.8  3.3  745  300           
00 17.11.12 330 (СЗ) 3{10}  10 км  {снег}  10/10 800 м 
[Sc|Ns]
-0.5 -3.4 81 -2  1010.1  3.3  747  302           
03 17.11.12 350 (С) 10 км    10/10 720 м 
[Sc|Ns]
-0.9 -3.9 80 -2  1012.2  748  303  -0.9    0.0  мокрый или
старый снег
50-90% 
06 17.11.12 330 (СЗ) 10 км  в посл. час снег  8/8 800 м средняя 
[Sc|Ac As]
-0.7 -3.3 83 -2  1014  1.8  750  303  -1.1         
09 17.11.12 320 (СЗ) 10 км    10/10 500 м 
[Sc]
+0.3 -2.8 80 1016.3  2.3  751  303           
12 17.11.12 330 (СЗ) 10 км    8/8 800 м 
[Sc]
+0.7 -2.6 79 +1  1018.4  2.1  753  303           
15 17.11.12 300 (СЗ) 10 км    9/9 480 м 
[St]
+0.7 -1.6 85 -1  1020.4  1.9  754  303    +0.7  0.0     
18 17.11.12 310 (СЗ) 10 км    10/10 420 м 
[St]
+0.4 -1.4 88 1021.5  1.1  755  304           
21 17.11.12 320 (СЗ) 10 км    10/0 верхняя 
[Ci]
+0.3 -1.9 85 1022.9  1.3  756  305           
00 18.11.12 310 (СЗ) 10 км    10/1 300 м средняя 
[St|Ac lent]
-0 -2.4 84 -1  1023.6  0.7  757  305           
03 18.11.12 320 (СЗ) 10 км    10/10 600 м 
[Sc]
-1.1 -4.4 78 -3  1024.6  0.9  757  307  -1.4      лёд 
06 18.11.12 310 (СЗ) 10 км    10/10 500 м 
[Sc]
-0.8 -4 79 1025.4  0.8  758  307           
09 18.11.12 270 (З) 10 км  снежные зёрна  10/10 400 м 
[St]
+0 -2.9 81 -1  1025.8  0.5  758  306           
12 18.11.12 250 (З) 10 км  {снег}  10/10 400 м 
[St]
+0.5 -2 83 +1  1025.9  0.1  758  305           
15 18.11.12 230 (ЮЗ) 10 км    10/0 средняя 
[As op]
+0.9 -1.6 83 +2  1026.4  0.5  759  305    +1  0.0     
18 18.11.12 250 (З) 10 км    10/0 средняя 
[As op]
+1.1 -1.4 83 1026.7  0.3  759  305           
21 18.11.12 250 (З) 10 км    10/0 средняя 
[As op]
+1.3 -1.2 83 +1  1027  0.3  759  305           
00 19.11.12 250 (З) 10 км    10/0 средняя 
[As op]
+1.3 -1 85 +1  1027.4  0.4  760  305           
03 19.11.12 160 (Ю) 10 км    10/0 средняя 
[As op]
+0.5 -1.2 88 +1  1027.1  -0.3  759  306  +0.5      <0.5  мокрый или
старый снег
10-40% 
06 19.11.12 230 (ЮЗ) 10 км    10/10 1000 м 
[Sc]
+1.5 -1.5 80 +2  1027.1  759  304           
09 19.11.12 250 (З) 10 км    10/0 средняя 
[As op]
+1.6 -2.4 75 +1  1026.3  -0.6  759  304           
12 19.11.12 250 (З) 5-10{10}  10 км    9/0 средняя 
[As op]
+1.4 -3.5 70 -1  1025.9  -0.5  758  304           
15 19.11.12 250 (З) 4{10}  10 км    9/9 800 м 
[Sc]
+1 -3.4 72 -1  1026.2  0.3  759  305    +1.6       
18 19.11.12 250 (З) 4{10}  10 км    10/10 800 м 
[Sc]
+1.3 -3.2 72 -1  1025.7  -0.4  758  304           
21 19.11.12 250 (З) 10 км    10/10 750 м 
[Sc]
+1.9 -2.1 75 1025.3  -0.4  758  304           
00 20.11.12 270 (З) 10 км    10/10 660 м 
[Sc]
+2.1 -1.5 77 +1  1025.4  758  303           
03 20.11.12 280 (З) 4-11{11}  10 км    10/10 500 м 
[Sc]
+0.7 -2.4 80 -2  1026.4  0.9  759  305  +0.7      <0.5  мокрый или
старый снег
10-40% 
06 20.11.12 280 (З) 3{11}  10 км    10/10 500 м 
[Sc]
+0.5 -2.6 80 -1  1027.8  0.9  760  306  +0.3         
09 20.11.12 270 (З) 10 км    10/10 480 м 
[Sc]
+1.2 -1.8 80 +1  1028.4  0.7  760  305           
12 20.11.12 280 (З) >10 км    8/6 600 м средняя 
[Sc|Ac cast]
+1.3 -1.6 81 1029  0.5  761  305           
15 20.11.12 260 (З) 10 км    10/10 700 м 
[Sc]
+1.4 -1.3 82 +1  1029.8  0.8  761  305    +1.5       
18 20.11.12 290 (З) 4{10}  10 км    10/10 500 м 
[Sc]
+1.5 -1.7 79 -1  1030.3  0.5  762  305           
21 20.11.12 280 (З) 10 км    10/10 720 м 
[Sc]
+1 -1.6 83 -1  1030.8  0.4  762  306           
00 21.11.12 280 (З) 10 км    10/10 720 м 
[Sc]
+0.9 -2.2 80 -1  1031.2  0.5  762  306           
03 21.11.12 290 (З) 10 км    10/10 720 м 
[Sc]
+1.1 -2.5 77 1031.4  0.2  762  306  +0.8      <0.5  мокрый или
старый снег
10-40% 
06 21.11.12 270 (З) 10 км    10/10 720 м 
[Sc]
+1.2 -2.3 77 1031.7  0.3  763  306  +0.8         
09 21.11.12 290 (З) 10 км    10/10 660 м 
[Sc]
+1.2 -2.6 76 1031.6  0.1  763  306           
12 21.11.12 280 (З) 10 км    10/10 600 м 
[Sc]
+0.9 -3.1 75 -1  1032  0.4  763  307           
15 21.11.12 290 (З) 10 км    10/10 570 м 
[Sc]
+0.8 -3.2 75 1032.5  0.5  763  307    +1.3       
18 21.11.12 310 (СЗ) 10 км    10/10 900 м 
[Sc]
+0.5 -3.5 75 1033.2  0.7  764  308           
21 21.11.12 280 (З) 10 км    10/10 960 м 
[Sc]
+0.4 -3.1 77 1034.3  765  308           
00 22.11.12 290 (З) 10 км    10/10 960 м 
[Sc]
+0.5 -2.2 82 1035  0.7  765  308           
03 22.11.12 270 (З) 10 км    10/10 840 м 
[Sc]
+0.7 -2.2 81 +1  1035.8  0.7  766  308  +0.3         
06 22.11.12 280 (З) 10 км    10/10 500 м 
[Sc]
+1 -1.6 83 +2  1036.7  766  308           
09 22.11.12 250 (З) 10 км    10/10 360 м 
[St]
+1.5 -1.3 81 +1  1036.5  -0.2  766  307           
12 22.11.12 240 (ЮЗ) 10 км    10/10 840 м 
[Sc]
+1.7 -1.4 80 +1  1036  -0.5  766  307           
15 22.11.12 250 (З) 10 км    10/0 средняя 
[Ac cast]
+1.4 -1.4 82 1035.7  -0.3  766  307    +1.8       
18 22.11.12 250 (З) 10 км    10/10 <0100 м 
[Ac As]
+1.4 -1.3 82 +1  1034.5  -1.2  765  307           
21 22.11.12 280 (З) 10 км    10/10 <0100 м 
[Ns]
+1.4 -2.4 76 +1  1033.7  -0.8  764  307           
00 23.11.12 290 (З) 10 км    10/10 <0100 м 
[Ns]
+1.5 -1.6 80 1033.1  -0.5  764  306           
03 23.11.12 290 (З) 10 км    10/10 <0100 м 
[Ns]
+1.6 -0.9 84 1032.9  -0.2  764  306  +1.3         
06 23.11.12 280 (З) 10 км    10/10 1110 м 
[Sc]
+2 -0.4 84 +1  1032.9  764  306           
09 23.11.12 290 (З) 10 км    10/10 800 м 
[Sc]
+2.6 +0.2 84 +1  1032.8  0.1  764  305           
12 23.11.12 270 (З) 10 км    10/10 800 м 
[Sc]
+2.5 -0.3 82 +2  1032.5  -0.3  763  305           
15 23.11.12 280 (З) 10 км    10/10 600 м 
[Sc]
+2 -2.6 72 +1  1032  -0.3  763  305    +2.8       
18 23.11.12 280 (З) 4{10}  10 км    10/10 700 м 
[Sc]
+1.4 -2.6 75 -1  1031.3  -0.7  762  306           
21 23.11.12 280 (З) 10 км    10/10 600 м 
[Sc]
+1.4 -2.2 77 1030.6  -0.7  762  306           
00 24.11.12 280 (З) 10 км    10/10 870 м 
[Sc]
+1.2 -2 79 +1  1029.8  -0.7  761  306           
03 24.11.12 270 (З) 10 км    10/10 750 м 
[Sc]
+0.9 -2 81 1028.9  -0.9  761  306  +0.9         
06 24.11.12 280 (З) 10 км    10/10 500 м 
[Sc]
-0.3 -3.4 79 -2  1028.6  -0.4  760  307  -0.3         
09 24.11.12 250 (З) >10 км    10/8 500 м средняя 
[Sc|Ac As]
-0.3 -3.4 79 -3  1027.5  -1.1  760  307           
12 24.11.12 280 (З) >10 км    10/8 540 м средняя 
[Sc|Ac cast]
-0.6 -4 78 -2  1027.1  -0.4  759  307           
15 24.11.12 290 (З) 10 км    9/9 570 м 
[Sc]
-1.4 -4.7 78 -3  1027.5  0.3  760  308    +0.8       
18 24.11.12 310 (СЗ) 10 км    10/10 500 м 
[Sc]
-1.7 -4.9 79 -4  1028.6  1.1  760  309           
21 24.11.12 310 (СЗ) 10 км    10/10 630 м 
[Sc]
-1.7 -4.2 83 -1  1029.5  0.9  761  309           
00 25.11.12 300 (СЗ) 10 км    9/9 630 м 
[Sc]
-1.5 -4 83 -1  1029.4  0.1  761  309           
03 25.11.12 340 (С) 10 км    10/10 600 м 
[Sc]
-1.3 -3.9 83 -1  1030.1  0.7  761  309  -1.8         
06 25.11.12 080 (В) 10 км    10/10 480 м 
[Sc]
-1.6 -3.6 86 -3  1030.8  0.7  762  309           
09 25.11.12 130 (ЮВ) 10 км  {снег}  10/10 300 м 
[St]
-1.3 -2.8 90 -1  1030.5  -0.3  762  309           
12 25.11.12 150 (ЮВ) 10 км  снежные зёрна  10/10 270 м 
[St]
-1.1 -2.5 90 -1  1030  -0.5  761  308           
15 25.11.12 150 (ЮВ) 10 км  {снег}  10/10 400 м 
[St]
-1 -2.5 89 1029  -0.9  761  308    -1  0.0     
18 25.11.12 170 (Ю) 10 км  {снег}  10/10 400 м 
[St]
-1.3 -3.3 86 -2  1028  -1  760  308           
21 25.11.12 180 (Ю) 10 км    10/10 420 м 
[St]
-2.1 -4.7 82 -2  1027.3  -1  759  309           
00 26.11.12 190 (Ю) 10 км    10/10 450 м 
[St]
-2.3 -5.2 80 -2  1025.7  -1.6  758  309           
03 26.11.12 210 (ЮЗ) 10 км    10/10 480 м 
[St]
-2.3 -5.2 80 -2  1024.2  -1.6  757  308  -2.6         
06 26.11.12 220 (ЮЗ) 10 км  снежные зёрна  10/10 300 м 
[St]
-2.9 -5 85 -4  1023.3  -0.9  756  309  -2.9         
09 26.11.12 210 (ЮЗ) 10 км  снежные зёрна  10/10 360 м 
[St]
-2.3 -4.9 82 -2  1021.7  -1.5  755  307           
12 26.11.12 200 (Ю) 10 км  в посл. час морось{снег}  10/10 330 м 
[St]
-1.7 -4.2 83 -1  1019.6  -2  754  306           
15 26.11.12 190 (Ю) 10 км  слаб. снег  10/10 240 м 
[Frnb|Ns]
-2 -3.5 90 -1  1018.3  -1.3  753  306    -1.6  0.0     
18 26.11.12 210 (ЮЗ) 10 км  {снег}  9/8 400 м средняя 
[St|As op]
-1.7 -4.3 82 -1  1017  -1.3  752  305           
21 26.11.12 190 (Ю) 10 км    10/10 400 м 
[St|Ns]
-2.3 -4.6 84 -2  1015.8  -1.2  751  306           
00 27.11.12 180 (Ю) 4000 м  слаб. снег  10/10 480 м 
[Ns]
-2.6 -4 90 -2  1014.3  -1.5  750  305           
03 27.11.12 180 (Ю) 4000 м  слаб. снег  10/10 300 м 
[Frnb|Ns]
-2.5 -3.6 92 -2  1013.1  -1.2  749  305  -2.6    0.4  сухой снег
50-90% 
06 27.11.12 190 (Ю) 2000 м  снег  10/10 480 м 
[Ns]
-2.4 -3.4 93 -2  1012.2  -0.9  748  305           
09 27.11.12 210 (ЮЗ) 4000 м  слаб. снег  10/10 300 м 
[Frnb|Ns]
-1.9 -3.1 92 -1  1011  -1.1  747  304           
12 27.11.12 190 (Ю) 4000 м  снег  10/10 480 м 
[Ns]
-2 -3.2 92 -1  1010  -1  747  303           
15 27.11.12 250 (З) 2000 м  снег  10/10 480 м 
[Ns]
-1.5 -2.4 94 -1  1009.6  -0.4  746  303    -1.5     
18 27.11.12 320 (СЗ) 4000 м  снег  10/10 240 м 
[Frnb|Ns]
-1.9 -3.4 89 -3  1009.5  -0.2  746  303           
21 27.11.12 310 (СЗ) 10 км  слаб. снег  10/10 270 м 
[Frnb|Ns]
-2.9 -4.8 87 -4  1010.1  0.5  747  305           
00 28.11.12 350 (С) 10 км  {снег}  10/0 средняя 
[As op]
-4.1 -6.5 83 -5  1010.6  0.4  747  306           
03 28.11.12 320 (СЗ) 10 км    10/0 средняя 
[Ac As]
-4 -6 86 -5  1011.1  0.6  747  306  -4.2    0.4  равномерный
сухой снег
100% 
06 28.11.12 310 (СЗ) 10 км    10/10 300 м 
[St]
-3.6 -5.5 87 -5  1012.3  1.2  748  306           
09 28.11.12 320 (СЗ) 4000 м  слаб. снег  10/10 360 м 
[Frnb|Ns]
-2.5 -4.6 85 -4  1013.5  1.2  749  305           
12 28.11.12 360 (С) 10 км  слаб. снег  10/8 360 м средняя 
[Frnb|Ac As]
-2.8 -6 79 -4  1015  1.5  750  306           
15 28.11.12 300 (СЗ) 10 км  слаб. снег  10/8 420 м средняя 
[Frnb|Ac As]
-3 -5.4 83 -4  1016.6  1.5  751  307    -2.5  0.0     
18 28.11.12 290 (З) 10 км  слаб. снег  10/10 480 м 
[Ns]
-3.2 -5.1 87 -4  1016.6  751  307           
21 28.11.12 300 (СЗ) 4000 м  слаб. снег  10/10 500 м 
[Ns]
-3.6 -5.1 89 -5  1017.2  0.6  752  308           
00 29.11.12 320 (СЗ) 10 км  слаб. снег  9/9 500 м средняя 
[As op]
-4.4 -6.8 83 -4  1018.2  0.8  752  309           
03 29.11.12 330 (СЗ) 10 км  слаб. снег  9/9 480 м средняя 
[As op]
-4.9 -7.1 84 -6  1018.4  0.3  753  310  -4.9    0.3  равномерный
сухой снег
100% 
09 29.11.12 030 (СВ) >10 км  {снег}  10/0 <0100 м средняя 
[As op]
-8.2 -11.3 78 -10  1020.6  0.5  754  314           
12 29.11.12 070 (В) 10 км  {снег}  8/3 <0100 м средняя, верхняя 
[As trans|Cs]
-11 -14.1 78 -13  1021.3  0.5  755  318           
15 29.11.12 080 (В) 10 км    4/0 <0100 м верхняя 
[Cs]
-13.5 -15.7 83 -16  1022.1  0.6  755  321    -4.9  0.0     
18 29.11.12 060 (СВ) 10 км  [диам. изморози 3 мм]  10/0 средняя 
[As trans]
-10.8 -12.2 89 -13  1021.9  755  318           
21 29.11.12 090 (В) 10 км  [диам. изморози 5 мм]  10/0 средняя 
[As op]
-10 -11.6 88 -12  1022  0.1  755  317           
00 30.11.12 090 (В) 10 км    10/10 270 м 
[St]
-9.8 -11.4 88 -13  1022.5  0.5  755  317           
03 30.11.12 100 (В) 10 км    10/3 300 м средняя 
[Frnb|As op]
-10.6 -12.6 85 -14  1023.4  0.9  756  318  -14.3      равномерный
сухой снег
100% 
06 30.11.12 090 (В) 10 км  слаб. снег  10/0 средняя 
[As op]
-11.7 -14.1 82 -16  1023.9  0.4  756  320           
09 30.11.12 090 (В) 4000 м  снег  10/10 500 м 
[Ns]
-11.6 -14.3 81 -16  1023.9  0.1  756  320           
12 30.11.12 090 (В) 5{10}  4000 м  снег  10/10 450 м 
[Ns]
-11.2 -13.5 83 -16  1023.1  -0.7  756  319           
15 30.11.12 100 (В) 6-10{11}  1000 м  сильн. снег  10/10 330 м 
[Ns]
-10.8 -12.6 87 -16  1020.9  -2.2  754  318    -10.5     
18 30.11.12 110 (В) 6-10{11}  1000 м  сильн. снег  10/10 200 м 
[Ns]
-9.1 -10.8 88 -14  1016.9  -3.9  751  314           
21 30.11.12 130 (ЮВ) 3-11{12}  4000 м  слаб. снег  10/10 450 м 
[Ns]
-7.4 -8.9 89 -10  1013.4  -3.3  749  311           
00 01.12.12 110 (В) 3{11}  10 км  {снег} [диам. гололёда 1 мм]  10/10 300 м 
[St]
-5.3 -6.3 93 -8  1010.2  -3  747  307           
03 01.12.12 120 (ЮВ) 1000 м  дымка{снег} [диам. гололёда 1 мм]  10/10 300 м 
[St]
-2.8 -3.6 94 -2  1008.9  -1.1  746  304  -10.8    12  13  равномерный
мокрый или
старый снег
100% 
06 01.12.12 160 (Ю) 0500 м  туман [диам. гололёда 1 мм]  ?/?  
-0.2 -0.8 96 1009.5  0.8  746  301      12     
09 01.12.12 150 (ЮВ) 0200 м  туман  ?/?  
+1 +0.5 96 +2  1011  1.5  747  300           
12 01.12.12 170 (Ю) 0200 м  туман  ?/?  
+1.6 +1.2 97 +2  1012.1  1.1  748  300           
15 01.12.12 250 (З) 0200 м  туман  ?/?  
+3.7 +3.3 97 +5  1013.5  1.5  749  297    +3.7       
18 01.12.12 250 (З) 1000 м  в посл. час туман  10/10 180 м 
[St]
+3.9 +3.5 97 +5  1014.4  0.9  750  297           
21 01.12.12 тихо ()   0200 м  туман  ?/?  
+2.6 +2.1 96 +3  1016  1.5  751  299           
00 02.12.12 тихо ()   0200 м  туман  ?/?  
+2.3 +1.9 97 +2  1016.8  0.8  752  300           
03 02.12.12 тихо ()   0200 м  туман  ?/?  
+1.9 +1.5 97 +2  1018  1.2  753  301  +1.9      равномерный
мокрый или
старый снег
100% 
09 02.12.12 110 (В) 4000 м    10/10 270 м 
[St]
+2.2 +1.8 97 +1  1017.3  -0.5  752  300           
12 02.12.12 110 (В) 0500 м  туман  ?/?  
+2 +1.6 97 1016  -1.3  751  300           
18 02.12.12 100 (В) 0500 м  слаб. дождь{морось}  ?/?  
+1.4 +1.1 98 -1  1012  -2.8  748  300           
Время (UTC), дата Ветер
(°,м/с) 
Видим.   Явления Облачность Т
(°С)
Тd
(°С)
f(%) Тe
(°С)
Pmin
(гПа)
dP
(гПа)
Po
(мм)
O2
(г/м3)
Тmin Tmax R s Состояние
почвы